Regional Weather Roundup
Issued by NWS

Home | Current Version | Previous Version | Graphics & Text | Print | Product List | Glossary On
Versions: 1 2 3 4 5 6 7 8 9 10 11 12 13 14 15 16 17 18 19 20 21 22 23 24 25 26 27 28 29 30 31 32 33 34 35 36 37 38 39 40 41 42 43 44 45 46 47 48 49 50
000
ASUS45 KTFX 222210
RWRMT
MONTANA REGIONAL WEATHER ROUNDUP
NATIONAL WEATHER SERVICE GREAT FALLS MT
400 PM MDT SUN OCT 22 2017

NOTE: "FAIR" INDICATES FEW OR NO CLOUDS BELOW 12000 FEET WITH NO
SIGNIFICANT WEATHER AND/OR OBSTRUCTIONS TO VISIBILITY.

MTZ001>007-043-222300-
WEST OF THE DIVIDE

CITY           SKY/WX    TMP DP  RH WIND       PRES   REMARKS
KALISPELL      CLOUDY    51  39  63 NW7       30.00R
MISSOULA       CLOUDY    53  33  46 W15G25    30.09R
BUTTE          CLOUDY    45  38  76 N14G23    30.09R
MULLAN PASS    CLOUDY    35  28  75 W12G23    30.11R WCI  27
$$

MTZ008-052>055-222300-
SOUTHWEST MONTANA

CITY           SKY/WX    TMP DP  RH WIND       PRES   REMARKS
BOZEMAN        CLOUDY    52  41  66 NW17G28   30.02R
DILLON         CLOUDY    58  33  39 W23G36    30.06R
W YELLOWSTONE  CLOUDY    39  36  87 SW15G25   30.14S WCI  31
ENNIS          CLOUDY    54  34  47 S21       30.10R
$$

MTZ009-010-012-014-046-048-049-054-222300-
EAST SLOPES AND CENTRAL MONTANA

CITY           SKY/WX    TMP DP  RH WIND       PRES   REMARKS
CUT BANK       MOSUNNY   51  28  41 W38G46    29.81R
GREAT FALLS    SUNNY     56  28  34 W36G48    29.87R
MALMSTROM AFB  SUNNY     56  29  36 W35G48    29.87R
HELENA         PTSUNNY   50  37  61 W31G39    30.01R
$$

MTZ011-013-016-021-045-047-050-051-222300-
NORTH CENTRAL MONTANA

CITY           SKY/WX    TMP DP  RH WIND       PRES   REMARKS
HAVRE          MOSUNNY   62  29  28 W45G58    29.69R
LEWISTOWN      CLOUDY    60  28  29 W31G51    29.78R
N BAR RANCH      N/A     61  23  23 W41G60    29.77R
$$

MTZ017>020-022>027-061-062-222300-
NORTHEAST MONTANA

CITY           SKY/WX    TMP DP  RH WIND       PRES   REMARKS
GLASGOW        LGT RAIN  56  44  64 W22G38    29.61R
JORDAN           N/A     66  30  26 W29G47    29.65R
WOLF POINT     PTSUNNY   67  36  31 W29G39    29.58R
MALTA            N/A     61  32  33 W32G48    29.63R
PLENTYWOOD       N/A     63  36  36 W23G33    29.51
$$

MTZ028>42-056>058-222300-
SOUTHCENTRAL AND SOUTHEAST MONTANA

CITY           SKY/WX    TMP DP  RH WIND       PRES   REMARKS
BAKER          CLOUDY    65  35  33 W20G31    29.70F
BILLINGS       LGT RAIN  60  39  45 W21G30    29.85R
LIVINGSTON     CLOUDY    58  35  42 W36G54    29.88R
MILES CITY     MOSUNNY   70  36  28 W26G39    29.69R
FORSYTH          N/A     64  36  34 W21G33    29.70
$$

REGIONAL REPORTS...DAKOTAS

CITY           SKY/WX    TMP DP  RH WIND       PRES   REMARKS
WILLISTON        N/A    N/A N/A N/A MISG      29.54F
MINOT          CLOUDY    56  41  57 S12       29.60R
DICKINSON      CLOUDY    65  35  33 W20       29.64S
BEACH          PTSUNNY   66  32  28 W30G41    29.68S
CROSBY           N/A     57  46  67 SW15      29.51F
TIOGA            N/A     57  45  62 MISG      29.57F
BISMARCK       CLOUDY    65  32  29 SW15      29.68F
GRAND FORKS    CLOUDY    62  30  29 SW17      29.67F
FARGO          PTSUNNY   62  32  32 S10       29.74F
BUFFALO SD       N/A     68  32  26 W25G37    29.69S
RAPID CITY     CLOUDY    69  29  22 SW12      29.84F
$$

REGIONAL REPORTS...WYOMING/IDAHO/WASHINGTON

CITY           SKY/WX    TMP DP  RH WIND       PRES   REMARKS
GILLETTE       CLOUDY    64  27  24 SW16      29.89S
SHERIDAN       CLOUDY    66  30  26 W29G38    29.87R
BUFFALO WY     CLOUDY    63  24  22 SE8       29.92R
CODY           CLOUDY    54  34  46 W26G43    29.93F
YELLOWSTONE LA   N/A     36  34  92 W10G22    30.19R WCI  28
IDAHO FALLS    CLOUDY    58  38  47 SW36G47   30.19F
SALMON         PTSUNNY   56  37  49 W18G35    30.13R
BOISE          PTSUNNY   63  43  48 E5        30.26S
SPOKANE        PTSUNNY   55  39  54 SW28      30.14R
$$

REGIONAL REPORTS...ALBERTA

CITY           SKY/WX    TMP DP  RH WIND       PRES   REMARKS
EDMONTON       SUNNY     50  36  57 NW8G17    29.60R
CALGARY        PTSUNNY   54  19  26 W24G32    29.67R
LETHBRIDGE     PTSUNNY   55  27  33 W40G55    29.72R
MEDICINE HAT   MOSUNNY   61  34  36 W36G45    29.58R
$$

REGIONAL REPORTS...SASKATCHEWAN

CITY           SKY/WX    TMP DP  RH WIND       PRES   REMARKS
SWIFT CURRENT  PTSUNNY   55  30  38 NW26G35   29.52R
REGINA         MOSUNNY   61  32  33 W26G35    29.41R
SASKATOON      LGT RAIN  41  39  93 VRB2      29.51R
$$



USA.gov is the U.S. government's official web portal to all federal, state and local government web resources and services.